Multibeam Report for MGLN37MV


Ship Name: Melville
Chief Scientist: None
Source Organization: University of California, Scripps Institution of Oceanography (UC/SIO)
Start Date: 2008-04-28
End Date: 2008-05-03


View ISO Metadata

Visit the full NCEI Bathymetry Viewer


Multibeam Bathymetry

Cruise Details

Project: Transit
Instrument: Simrad EM120

Data Quality

Number of Files: 122
Number of Records: 46561
BATHYMETRY DATA Quantity Percentage
Number of Beams 8891432 100%
Number of Good Beams 8249785 92.78%
Number of Zero Beams 641647 7.22%
Number of Flagged Beams 0 0%

Navigation Totals

Total Time: 118.5437 hours
Total Track Length: 2836.173 km
Average Speed: 23.925 km/hr (12.9185 knots)

Cruise Bounds

Northern Extent: 22.623173
Southern Extent: 13.449878
Western Extent: 120.18665
Eastern Extent: 144.6153

Limits

Minimum Sonar Depth 4.2 Maximum Sonar Depth 6.29
Minimum Altitude 0 Maximum Altitude 6319.8398
Minimum Depth 7.46 Maximum Depth 6698.27

File Information

Full Resolution Bathymetry as collected (raw): 120

Files File Size Description
0431_20080428_062031_melville.all.mb56.gz 4.79MB Simrad multibeam vendor format
0432_20080428_072030_melville.all.mb56.gz 3.81MB Simrad multibeam vendor format
0433_20080428_082031_melville.all.mb56.gz 3.74MB Simrad multibeam vendor format
0434_20080428_092031_melville.all.mb56.gz 3.70MB Simrad multibeam vendor format
0435_20080428_102031_melville.all.mb56.gz 3.55MB Simrad multibeam vendor format
0436_20080428_112031_melville.all.mb56.gz 3.60MB Simrad multibeam vendor format
0437_20080428_122031_melville.all.mb56.gz 3.53MB Simrad multibeam vendor format
0438_20080428_132031_melville.all.mb56.gz 3.52MB Simrad multibeam vendor format
0439_20080428_142031_melville.all.mb56.gz 4.39MB Simrad multibeam vendor format
0440_20080428_152031_melville.all.mb56.gz 3.81MB Simrad multibeam vendor format
0441_20080428_162031_melville.all.mb56.gz 3.66MB Simrad multibeam vendor format
0442_20080428_172031_melville.all.mb56.gz 3.60MB Simrad multibeam vendor format
0443_20080428_182031_melville.all.mb56.gz 3.52MB Simrad multibeam vendor format
0444_20080428_192031_melville.all.mb56.gz 3.57MB Simrad multibeam vendor format
0445_20080428_202031_melville.all.mb56.gz 3.59MB Simrad multibeam vendor format
0446_20080428_212031_melville.all.mb56.gz 3.51MB Simrad multibeam vendor format
0447_20080428_222031_melville.all.mb56.gz 3.55MB Simrad multibeam vendor format
0448_20080428_232031_melville.all.mb56.gz 3.61MB Simrad multibeam vendor format
0449_20080429_002031_melville.all.mb56.gz 3.49MB Simrad multibeam vendor format
0450_20080429_012031_melville.all.mb56.gz 3.47MB Simrad multibeam vendor format
0451_20080429_022031_melville.all.mb56.gz 3.52MB Simrad multibeam vendor format
0452_20080429_032031_melville.all.mb56.gz 3.49MB Simrad multibeam vendor format
0453_20080429_042031_melville.all.mb56.gz 3.23MB Simrad multibeam vendor format
0454_20080429_052031_melville.all.mb56.gz 3.22MB Simrad multibeam vendor format
0455_20080429_062031_melville.all.mb56.gz 3.32MB Simrad multibeam vendor format
0456_20080429_072031_melville.all.mb56.gz 3.28MB Simrad multibeam vendor format
0457_20080429_082031_melville.all.mb56.gz 3.33MB Simrad multibeam vendor format
0458_20080429_092031_melville.all.mb56.gz 3.23MB Simrad multibeam vendor format
0459_20080429_102031_melville.all.mb56.gz 3.37MB Simrad multibeam vendor format
0460_20080429_112031_melville.all.mb56.gz 3.44MB Simrad multibeam vendor format
0461_20080429_122031_melville.all.mb56.gz 3.34MB Simrad multibeam vendor format
0462_20080429_132031_melville.all.mb56.gz 3.34MB Simrad multibeam vendor format
0463_20080429_142031_melville.all.mb56.gz 3.40MB Simrad multibeam vendor format
0464_20080429_152031_melville.all.mb56.gz 3.40MB Simrad multibeam vendor format
0465_20080429_162031_melville.all.mb56.gz 3.29MB Simrad multibeam vendor format
0466_20080429_172031_melville.all.mb56.gz 3.31MB Simrad multibeam vendor format
0467_20080429_182031_melville.all.mb56.gz 3.33MB Simrad multibeam vendor format
0468_20080429_192031_melville.all.mb56.gz 3.37MB Simrad multibeam vendor format
0469_20080429_202031_melville.all.mb56.gz 3.34MB Simrad multibeam vendor format
0470_20080429_212031_melville.all.mb56.gz 3.31MB Simrad multibeam vendor format
0471_20080429_222031_melville.all.mb56.gz 3.28MB Simrad multibeam vendor format
0472_20080429_232031_melville.all.mb56.gz 3.29MB Simrad multibeam vendor format
0473_20080430_002031_melville.all.mb56.gz 3.25MB Simrad multibeam vendor format
0474_20080430_012031_melville.all.mb56.gz 3.28MB Simrad multibeam vendor format
0475_20080430_022031_melville.all.mb56.gz 3.26MB Simrad multibeam vendor format
0476_20080430_032031_melville.all.mb56.gz 3.39MB Simrad multibeam vendor format
0477_20080430_042031_melville.all.mb56.gz 3.50MB Simrad multibeam vendor format
0478_20080430_052031_melville.all.mb56.gz 3.48MB Simrad multibeam vendor format
0479_20080430_062031_melville.all.mb56.gz 3.45MB Simrad multibeam vendor format
0480_20080430_072031_melville.all.mb56.gz 3.39MB Simrad multibeam vendor format
0481_20080430_082031_melville.all.mb56.gz 3.54MB Simrad multibeam vendor format
0482_20080430_092031_melville.all.mb56.gz 3.26MB Simrad multibeam vendor format
0483_20080430_102031_melville.all.mb56.gz 3.28MB Simrad multibeam vendor format
0484_20080430_112031_melville.all.mb56.gz 3.43MB Simrad multibeam vendor format
0485_20080430_122031_melville.all.mb56.gz 3.38MB Simrad multibeam vendor format
0486_20080430_132031_melville.all.mb56.gz 3.37MB Simrad multibeam vendor format
0487_20080430_142031_melville.all.mb56.gz 3.34MB Simrad multibeam vendor format
0488_20080430_152031_melville.all.mb56.gz 3.41MB Simrad multibeam vendor format
0489_20080430_162031_melville.all.mb56.gz 3.45MB Simrad multibeam vendor format
0490_20080430_172031_melville.all.mb56.gz 3.49MB Simrad multibeam vendor format
0491_20080430_182031_melville.all.mb56.gz 3.44MB Simrad multibeam vendor format
0492_20080430_192031_melville.all.mb56.gz 3.40MB Simrad multibeam vendor format
0493_20080430_202031_melville.all.mb56.gz 3.50MB Simrad multibeam vendor format
0494_20080430_212031_melville.all.mb56.gz 3.39MB Simrad multibeam vendor format
0495_20080430_222031_melville.all.mb56.gz 3.31MB Simrad multibeam vendor format
0496_20080430_232031_melville.all.mb56.gz 3.36MB Simrad multibeam vendor format
0497_20080501_002032_melville.all.mb56.gz 3.35MB Simrad multibeam vendor format
0498_20080501_012032_melville.all.mb56.gz 3.23MB Simrad multibeam vendor format
0499_20080501_022032_melville.all.mb56.gz 3.26MB Simrad multibeam vendor format
0500_20080501_032032_melville.all.mb56.gz 3.29MB Simrad multibeam vendor format
0501_20080501_042032_melville.all.mb56.gz 3.25MB Simrad multibeam vendor format
0502_20080501_052032_melville.all.mb56.gz 3.33MB Simrad multibeam vendor format
0503_20080501_062032_melville.all.mb56.gz 3.36MB Simrad multibeam vendor format
0504_20080501_072032_melville.all.mb56.gz 3.40MB Simrad multibeam vendor format
0505_20080501_082032_melville.all.mb56.gz 3.45MB Simrad multibeam vendor format
0506_20080501_092032_melville.all.mb56.gz 3.48MB Simrad multibeam vendor format
0507_20080501_102032_melville.all.mb56.gz 3.46MB Simrad multibeam vendor format
0508_20080501_112032_melville.all.mb56.gz 3.49MB Simrad multibeam vendor format
0509_20080501_122032_melville.all.mb56.gz 3.36MB Simrad multibeam vendor format
0510_20080501_132032_melville.all.mb56.gz 3.37MB Simrad multibeam vendor format
0511_20080501_142032_melville.all.mb56.gz 3.43MB Simrad multibeam vendor format
0512_20080501_152032_melville.all.mb56.gz 3.35MB Simrad multibeam vendor format
0513_20080501_162032_melville.all.mb56.gz 3.32MB Simrad multibeam vendor format
0514_20080501_172032_melville.all.mb56.gz 3.33MB Simrad multibeam vendor format
0515_20080501_182032_melville.all.mb56.gz 3.35MB Simrad multibeam vendor format
0516_20080501_192032_melville.all.mb56.gz 3.29MB Simrad multibeam vendor format
0517_20080501_202032_melville.all.mb56.gz 3.24MB Simrad multibeam vendor format
0518_20080501_212032_melville.all.mb56.gz 3.27MB Simrad multibeam vendor format
0519_20080501_222032_melville.all.mb56.gz 3.22MB Simrad multibeam vendor format
0520_20080501_232032_melville.all.mb56.gz 3.12MB Simrad multibeam vendor format
0521_20080502_002032_melville.all.mb56.gz 3.18MB Simrad multibeam vendor format
0522_20080502_012032_melville.all.mb56.gz 3.19MB Simrad multibeam vendor format
0523_20080502_022032_melville.all.mb56.gz 3.12MB Simrad multibeam vendor format
0524_20080502_032032_melville.all.mb56.gz 3.20MB Simrad multibeam vendor format
0525_20080502_042032_melville.all.mb56.gz 3.16MB Simrad multibeam vendor format
0526_20080502_052032_melville.all.mb56.gz 3.16MB Simrad multibeam vendor format
0527_20080502_062032_melville.all.mb56.gz 3.23MB Simrad multibeam vendor format
0528_20080502_072032_melville.all.mb56.gz 3.19MB Simrad multibeam vendor format
0529_20080502_082032_melville.all.mb56.gz 3.26MB Simrad multibeam vendor format
0530_20080502_092032_melville.all.mb56.gz 3.26MB Simrad multibeam vendor format
0531_20080502_102032_melville.all.mb56.gz 3.21MB Simrad multibeam vendor format
0532_20080502_112032_melville.all.mb56.gz 3.55MB Simrad multibeam vendor format
0533_20080502_122032_melville.all.mb56.gz 3.41MB Simrad multibeam vendor format
0534_20080502_132032_melville.all.mb56.gz 3.41MB Simrad multibeam vendor format
0535_20080502_142032_melville.all.mb56.gz 3.35MB Simrad multibeam vendor format
0536_20080502_152032_melville.all.mb56.gz 3.47MB Simrad multibeam vendor format
0537_20080502_162032_melville.all.mb56.gz 3.90MB Simrad multibeam vendor format
0538_20080502_172032_melville.all.mb56.gz 5.84MB Simrad multibeam vendor format
0539_20080502_182032_melville.all.mb56.gz 3.84MB Simrad multibeam vendor format
0540_20080502_192032_melville.all.mb56.gz 5.51MB Simrad multibeam vendor format
0541_20080502_202032_melville.all.mb56.gz 8.26MB Simrad multibeam vendor format
0542_20080502_212032_melville.all.mb56.gz 6.87MB Simrad multibeam vendor format
0543_20080502_222032_melville.all.mb56.gz 6.14MB Simrad multibeam vendor format
0544_20080502_232032_melville.all.mb56.gz 5.87MB Simrad multibeam vendor format
0545_20080503_002032_melville.all.mb56.gz 6.43MB Simrad multibeam vendor format
0546_20080503_012032_melville.all.mb56.gz 6.65MB Simrad multibeam vendor format
0547_20080503_022032_melville.all.mb56.gz 11.03MB Simrad multibeam vendor format
0548_20080503_032032_melville.all.mb56.gz 30.40MB Simrad multibeam vendor format
0549_20080503_042032_melville.all.mb56.gz 46.59MB Simrad multibeam vendor format
0550_20080503_052033_melville.all.mb56.gz 8.72MB Simrad multibeam vendor format

Metadata Files: 2

Files File Size Description
MGLN37MV_Multibeam.xml NCEI created ISO metadata
mb_bag_info.tar.gz 5.2KB Additional cruise information